This demonstration page uses our WeatherBlox Daily Observations layout. Learn more.

39.29038, -76.61219

Hourly Observations for July 27, 2017

Temp ( °F °C ) Dew Point ( °F °C ) Humidity (%) Winds ( mph kmh ) Pressure ( in mb ) Visibility ( mi km ) Precip ( " mm )
12:54 am 00:54 undefined 75 23.9 67 19.4 76 76 undefined N/A 30.09 1019 N/A 0 0
1:54 am 01:54 undefined 74 23.3 67 19.4 79 79 undefined N/A 30.06 1018 N/A 0 0
2:54 am 02:54 undefined 75 23.9 68 20 79 79 undefined N/A 30.06 1018 N/A 0 0
3:54 am 03:54 undefined 75 23.9 69 20.6 82 82 undefined N/A 30.03 1017 N/A 0 0
4:54 am 04:54 undefined 75 23.9 69 20.6 82 82 undefined N/A 30.03 1017 N/A 0 0
5:54 am 05:54 undefined 75 23.9 68 20 79 79 undefined N/A 30.03 1017 N/A 0 0
6:54 am 06:54 undefined 74 23.3 68 20 82 82 undefined N/A 30.03 1017 N/A 0 0
7:54 am 07:54 undefined 75 23.9 68 20 79 79 undefined N/A 30 1016 N/A 0 0
8:54 am 08:54 undefined 75 23.9 68 20 79 79 undefined N/A 30 1016 N/A 0 0
9:54 am 09:54 undefined 77 25 69 20.6 77 77 undefined N/A 30 1016 N/A 0 0
10:54 am 10:54 undefined 79 26.1 69 20.6 72 72 undefined N/A 29.97 1015 N/A 0 0
11:54 am 11:54 undefined 82 27.8 71 21.7 69 69 undefined N/A 29.94 1014 N/A 0 0
12:54 pm 12:54 undefined 82 27.8 71 21.7 69 69 undefined N/A 29.94 1014 N/A 0 0
1:54 pm 13:54 undefined 84 28.9 72 22.2 67 67 undefined N/A 29.91 1013 N/A 0 0
2:54 pm 14:54 undefined 84 28.9 73 22.8 70 70 undefined N/A 29.88 1012 N/A 0 0
3:54 pm 15:54 undefined 85 29.4 72 22.2 65 65 undefined N/A 29.88 1012 N/A 0 0
4:54 pm 16:54 undefined 87 30.6 71 21.7 59 59 undefined N/A 29.85 1011 N/A 0 0
5:54 pm 17:54 undefined 86 30 71 21.7 61 61 undefined N/A 29.85 1011 N/A 0 0
6:54 pm 18:54 undefined 84 28.9 71 21.7 65 65 undefined N/A 29.85 1011 N/A 0 0
7:54 pm 19:54 undefined 84 28.9 74 23.3 72 72 undefined N/A 29.85 1011 N/A 0 0
8:54 pm 20:54 undefined 83 28.3 74 23.3 74 74 undefined N/A 29.85 1011 N/A 0 0
9:54 pm 21:54 undefined 82 27.8 74 23.3 77 77 undefined N/A 29.85 1011 N/A 0 0
10:54 pm 22:54 undefined 81 27.2 74 23.3 79 79 undefined N/A 29.83 1010 N/A 0 0
11:54 pm 23:54 undefined 81 27.2 71 21.7 72 72 undefined N/A 29.83 1010 N/A 0 0

Powered by AerisWeather